Simultaneous Nadir Overpasses (SNOs) Predictions

Prediction of SNOs between AQUA and METOP-B Satellite Orbit:

Table of predicted SNOs for the next 14.0 days since TLE Epoch: 10/20/2017
Index Date (AQUA) Time (AQUA) Lat,Lon (AQUA) SZA (AQUA ) Date (METOP-B) Time (METOP-B) Lat,Lon (METOP-B) SZA (METOP-B ) Distance(km) Time Diff (sec)
1 10/23/2017 09:01:17 73.78, 38.93 85.22 10/23/2017 09:00:11 73.76, 39.03 85.21 3.44 66
2 10/23/2017 09:50:43 -73.80,-153.47 94.75 10/23/2017 09:50:52 -73.79,-153.58 94.76 3.57 9
3 10/23/2017 10:40:15 74.03, 13.64 85.51 10/23/2017 10:41:26 74.09, 14.48 85.55 26.26 71
4 10/26/2017 04:35:32 73.74, 105.47 86.15 10/26/2017 04:34:34 73.74, 105.39 86.16 2.57 58
5 10/26/2017 05:24:59 -73.80, -87.03 93.78 10/26/2017 05:25:14 -73.82, -87.10 93.76 3.22 15
6 10/26/2017 06:14:36 74.30, 79.46 86.75 10/26/2017 06:15:44 74.32, 81.46 86.75 60.05 68
7 10/29/2017 00:09:48 73.75, 171.87 87.11 10/29/2017 00:08:56 73.77, 171.86 87.13 2.07 52
8 10/29/2017 00:59:16 -73.86, -20.72 92.77 10/29/2017 00:59:36 -73.85, -20.62 92.79 3.30 20
9 10/29/2017 01:48:57 74.57, 145.25 87.98 10/29/2017 01:50:01 74.59, 148.57 87.97 98.44 64
10 10/31/2017 19:44:03 73.77,-121.74 88.05 10/31/2017 19:43:17 73.79,-121.68 88.07 2.90 46
11 10/31/2017 20:33:30 -73.82, 45.79 91.89 10/31/2017 20:33:58 -73.82, 45.72 91.89 2.23 28
12 11/03/2017 15:18:18 73.75, -55.25 88.91 11/03/2017 15:17:40 73.76, -55.34 88.93 2.97 38
13 11/03/2017 16:07:46 -73.84, 112.18 90.98 11/03/2017 16:08:20 -73.84, 112.18 90.99 0.17 34




NCC Satellite Simultaneous Nadir Overpasses (SNOs) Prediction Service
